Hourly Weather Kshkar

Today, 14 July, Tuesday

Time Temperature Precipitation Wind Pressure Humidity
00:00 +22°C° 0 mm 3 mps 744 mmHg 95%
01:00 +22°C° 0 mm 3 mps 744 mmHg 96%
02:00 +22°C° 0 mm 3 mps 744 mmHg 96%
03:00 +22°C° 0 mm 3 mps 744 mmHg 95%
04:00 +24°C° 0 mm 3 mps 744 mmHg 90%
05:00 +25°C° 0 mm 4 mps 744 mmHg 85%
06:00 +26°C° 0 mm 4 mps 744 mmHg 80%
07:00 +27°C° 0 mm 4 mps 744 mmHg 76%
08:00 +28°C° 0 mm 4 mps 744 mmHg 73%
09:00 +29°C° 0 mm 5 mps 744 mmHg 69%
10:00 +30°C° 0 mm 5 mps 744 mmHg 66%
11:00 +32°C° 0 mm 5 mps 744 mmHg 64%
12:00 +33°C° 0 mm 6 mps 744 mmHg 61%
13:00 +33°C° 0 mm 6 mps 744 mmHg 62%
14:00 +34°C° 0 mm 6 mps 744 mmHg 63%
15:00 +34°C° 0 mm 6 mps 745 mmHg 64%
16:00 +34°C° 0 mm 5 mps 744 mmHg 68%
17:00 +33°C° 0 mm 4 mps 744 mmHg 73%
18:00 +31°C° 0 mm 3 mps 744 mmHg 77%
19:00 +30°C° 0.2 mm 4 mps 744 mmHg 81%
20:00 +28°C° 0.2 mm 4 mps 744 mmHg 85%
21:00 +27°C° 0.2 mm 4 mps 744 mmHg 89%
22:00 +26°C° 0.4 mm 4 mps 744 mmHg 87%
23:00 +25°C° 0.4 mm 5 mps 744 mmHg 85%

Tomorrow, 15 July, Wednesday

Time Temperature Precipitation Wind Pressure Humidity
00:00 +24°C° 0.4 mm 6 mps 744 mmHg 83%
01:00 +23°C° 0.3 mm 5 mps 744 mmHg 85%
02:00 +22°C° 0.3 mm 4 mps 744 mmHg 87%
03:00 +21°C° 0.3 mm 3 mps 744 mmHg 88%
04:00 +22°C° 0 mm 4 mps 744 mmHg 86%
05:00 +23°C° 0 mm 4 mps 744 mmHg 84%
06:00 +23°C° 0 mm 4 mps 744 mmHg 82%
07:00 +26°C° 0 mm 4 mps 744 mmHg 77%
08:00 +27°C° 0 mm 4 mps 744 mmHg 73%
09:00 +28°C° 0 mm 5 mps 744 mmHg 68%
10:00 +28°C° 0 mm 4 mps 744 mmHg 67%
11:00 +29°C° 0 mm 4 mps 744 mmHg 66%
12:00 +30°C° 0 mm 4 mps 744 mmHg 65%
13:00 +29°C° 0 mm 4 mps 744 mmHg 68%
14:00 +28°C° 0 mm 4 mps 744 mmHg 71%
15:00 +27°C° 0 mm 4 mps 744 mmHg 75%
16:00 +27°C° 0.1 mm 4 mps 743 mmHg 76%
17:00 +27°C° 0.1 mm 4 mps 743 mmHg 77%
18:00 +27°C° 0.1 mm 4 mps 743 mmHg 79%
19:00 +25°C° 0.1 mm 4 mps 743 mmHg 82%
20:00 +23°C° 0.1 mm 4 mps 744 mmHg 84%
21:00 +22°C° 0.1 mm 4 mps 744 mmHg 87%
22:00 +21°C° 0 mm 4 mps 744 mmHg 88%
23:00 +21°C° 0 mm 3 mps 744 mmHg 89%

Day after tomorrow, 16 July, Thursday

Time Temperature Precipitation Wind Pressure Humidity
00:00 +20°C° 0 mm 3 mps 744 mmHg 90%
01:00 +19°C° 0 mm 2 mps 744 mmHg 90%
02:00 +18°C° 0 mm 2 mps 744 mmHg 91%
03:00 +18°C° 0 mm 1 mps 744 mmHg 91%
04:00 +19°C° 0 mm 1 mps 744 mmHg 88%
05:00 +20°C° 0 mm 1 mps 744 mmHg 85%
06:00 +20°C° 0 mm 1 mps 744 mmHg 81%
07:00 +21°C° 0 mm 2 mps 744 mmHg 76%
08:00 +22°C° 0 mm 3 mps 744 mmHg 71%
09:00 +23°C° 0 mm 4 mps 744 mmHg 66%
10:00 +25°C° 0 mm 5 mps 744 mmHg 64%
11:00 +25°C° 0 mm 5 mps 744 mmHg 61%
12:00 +26°C° 0 mm 5 mps 744 mmHg 59%
13:00 +26°C° 0 mm 5 mps 744 mmHg 58%
14:00 +26°C° 0 mm 5 mps 744 mmHg 58%
15:00 +26°C° 0 mm 5 mps 744 mmHg 57%
16:00 +25°C° 0 mm 4 mps 744 mmHg 60%
17:00 +25°C° 0 mm 3 mps 744 mmHg 64%
18:00 +24°C° 0 mm 2 mps 744 mmHg 67%
19:00 +21°C° 0 mm 2 mps 744 mmHg 69%
20:00 +20°C° 0 mm 1 mps 744 mmHg 71%
21:00 +18°C° 0 mm 1 mps 743 mmHg 73%
22:00 +18°C° 0 mm 1 mps 743 mmHg 74%
23:00 +18°C° 0 mm 1 mps 743 mmHg 75%

17 July, Friday

Time Temperature Precipitation Wind Pressure Humidity
00:00 +15°C° 0 mm 0 mps 743 mmHg 76%
01:00 +15°C° 0 mm 0 mps 743 mmHg 78%
02:00 +14°C° 0 mm 0 mps 743 mmHg 80%
03:00 +14°C° 0 mm 0 mps 743 mmHg 82%
04:00 +16°C° 0 mm 1 mps 743 mmHg 81%
05:00 +16°C° 0 mm 1 mps 743 mmHg 80%
06:00 +18°C° 0 mm 1 mps 743 mmHg 79%
07:00 +19°C° 0 mm 2 mps 743 mmHg 75%
08:00 +20°C° 0 mm 2 mps 743 mmHg 71%
09:00 +21°C° 0 mm 3 mps 743 mmHg 67%
10:00 +21°C° 0 mm 3 mps 743 mmHg 65%
11:00 +22°C° 0 mm 3 mps 743 mmHg 63%
12:00 +22°C° 0 mm 4 mps 744 mmHg 61%
13:00 +22°C° 0.1 mm 4 mps 743 mmHg 62%
14:00 +23°C° 0.1 mm 4 mps 743 mmHg 63%
15:00 +23°C° 0.1 mm 4 mps 743 mmHg 63%
16:00 +22°C° 0.2 mm 4 mps 743 mmHg 68%
17:00 +21°C° 0.2 mm 3 mps 743 mmHg 73%
18:00 +21°C° 0.2 mm 3 mps 743 mmHg 77%
19:00 +19°C° 0 mm 2 mps 743 mmHg 81%
20:00 +18°C° 0 mm 2 mps 744 mmHg 84%
21:00 +16°C° 0 mm 2 mps 744 mmHg 88%
22:00 +16°C° 0 mm 2 mps 744 mmHg 89%
23:00 +15°C° 0 mm 2 mps 744 mmHg 90%

18 July, Saturday

Time Temperature Precipitation Wind Pressure Humidity
00:00 +15°C° 0 mm 1 mps 744 mmHg 91%
01:00 +14°C° 0 mm 1 mps 744 mmHg 92%
02:00 +14°C° 0 mm 1 mps 744 mmHg 92%
03:00 +14°C° 0 mm 1 mps 744 mmHg 93%
04:00 +15°C° 0 mm 1 mps 744 mmHg 92%
05:00 +16°C° 0 mm 1 mps 744 mmHg 90%
06:00 +16°C° 0 mm 2 mps 744 mmHg 89%
07:00 +18°C° 0 mm 2 mps 744 mmHg 83%
08:00 +19°C° 0 mm 2 mps 744 mmHg 78%
09:00 +21°C° 0 mm 3 mps 744 mmHg 72%
10:00 +21°C° 0.1 mm 3 mps 745 mmHg 70%
11:00 +22°C° 0.1 mm 3 mps 745 mmHg 68%
12:00 +22°C° 0.1 mm 3 mps 745 mmHg 66%
13:00 +22°C° 0.4 mm 4 mps 745 mmHg 67%
14:00 +22°C° 0.4 mm 4 mps 745 mmHg 68%
15:00 +22°C° 0.4 mm 4 mps 744 mmHg 69%
16:00 +22°C° 0.3 mm 4 mps 744 mmHg 74%
17:00 +21°C° 0.3 mm 4 mps 744 mmHg 78%
18:00 +20°C° 0.3 mm 3 mps 744 mmHg 82%
19:00 +18°C° 0 mm 3 mps 744 mmHg 86%
20:00 +17°C° 0 mm 3 mps 744 mmHg 90%
21:00 +14°C° 0 mm 3 mps 745 mmHg 94%
22:00 +13°C° 0 mm 3 mps 745 mmHg 94%
23:00 +14°C° 0 mm 2 mps 745 mmHg 94%

19 July, Sunday

Time Temperature Precipitation Wind Pressure Humidity
00:00 +13°C° 0 mm 2 mps 745 mmHg 94%
01:00 +13°C° 0 mm 2 mps 745 mmHg 95%
02:00 +13°C° 0 mm 2 mps 745 mmHg 95%
03:00 +13°C° 0 mm 2 mps 745 mmHg 95%
04:00 +14°C° 0 mm 2 mps 745 mmHg 93%
05:00 +15°C° 0 mm 2 mps 745 mmHg 91%
06:00 +16°C° 0 mm 2 mps 745 mmHg 89%
07:00 +17°C° 0 mm 3 mps 745 mmHg 84%
08:00 +18°C° 0 mm 3 mps 745 mmHg 80%
09:00 +19°C° 0 mm 3 mps 744 mmHg 75%
10:00 +20°C° 0.1 mm 3 mps 744 mmHg 73%
11:00 +21°C° 0.1 mm 3 mps 744 mmHg 70%
12:00 +21°C° 0.1 mm 3 mps 744 mmHg 67%
13:00 +21°C° 0.3 mm 3 mps 744 mmHg 69%
14:00 +21°C° 0.3 mm 3 mps 744 mmHg 70%
15:00 +21°C° 0.3 mm 3 mps 743 mmHg 71%
16:00 +21°C° 0.2 mm 3 mps 743 mmHg 73%
17:00 +21°C° 0.2 mm 2 mps 743 mmHg 76%
18:00 +21°C° 0.2 mm 2 mps 743 mmHg 78%
19:00 +19°C° 0 mm 2 mps 743 mmHg 83%
20:00 +18°C° 0 mm 2 mps 742 mmHg 87%
21:00 +17°C° 0 mm 2 mps 742 mmHg 91%
22:00 +16°C° 0 mm 2 mps 742 mmHg 92%
23:00 +16°C° 0 mm 2 mps 741 mmHg 92%
Show more